286  
ASUS41 KALY 240210  
RWRALY  
 
NEW YORK STATE HOURLY WEATHER ROUNDUP  
NATIONAL WEATHER SERVICE ALBANY NY  
1000 PM EDT WED SEP 23 2020  
 
NOTE: "FAIR" INDICATES FEW OR NO CLOUDS BELOW 12,000 FEET WITH NO  
SIGNIFICANT WEATHER AND/OR NO S TO VISIBILITY
.  
 
NYZ032-033-038>043-046>054-057>066-NYZ062>081-082-084-240300-  
EAST  
 
 
CITY SKY/WX TMP DP RH WIND PRES REMARKS
 
ALBANY CLEAR 59 53 80 W10 29.90R  
GLENS FALLS CLEAR 54 49 83 CALM 29.88R  
POUGHKEEPSIE CLEAR 57 52 83 CALM 29.90R  
NEWBURGH CLEAR 63 54 72 CALM 29.91R  
MONTGOMERY CLEAR 54 52 93 SW3 29.91R  
WHITE PLAINS CLEAR 59 51 75 NW5 29.91R  
ISLIP CLEAR 66 54 65 NW5 29.90R  
NEW YORK CITY CLEAR 74 55 51 NW5 29.90R  
CENTRAL PARK CLEAR 72 51 47 W5 29.93R  

 
 
NYZ005>009-017-018-044>046-055-056-240300-  
CENTRAL  
 
 
CITY SKY/WX TMP DP RH WIND PRES REMARKS
 
FULTON PTCLDY 58 51 78 CALM 29.93R  
SYRACUSE PTCLDY 59 49 69 W3 29.93R  
ROME CLEAR 53 49 86 NE3 29.94R  
ELMIRA CLEAR 55 46 71 CALM 29.96S  
BINGHAMTON CLEAR 62 48 60 NW3 29.97R  
MONTICELLO CLEAR 55 51 86 NW5 29.97R  

 
 
NYZ026>034-041>043-087-240300-  
NORTH  
 
 
CITY SKY/WX TMP DP RH WIND PRES REMARKS
 
WATERTOWN CLEAR 59 55 87 SW5 29.89R  
FORT DRUM NOT AVBL  
OGDENSBURG MOCLDY 55 54 94 S3 29.85R  
MASSENA CLEAR 53 51 93 SW3 29.87R  
SARANAC LAKE PTCLDY 57 54 89 SW7 29.89S  
PLATTSBURGH CLEAR 60 54 80 CALM 29.83R  

 
 
NYZ001>004-010>016-019>021-085-240300-  
WEST  
 
 
CITY SKY/WX TMP DP RH WIND PRES REMARKS
 
NIAGARA FALLS CLEAR 62 58 86 SW6 29.94S  
BUFFALO PTCLDY 66 61 84 SW10 29.96S  
DUNKIRK PTCLDY 62 55 77 SW7 29.98S  
JAMESTOWN PTCLDY 59 54 83 W12 30.02S  
WELLSVILLE CLEAR 58 51 78 W6 30.02F  
ROCHESTER CLEAR 65 58 78 W10 29.94F  
PENN YAN CLEAR 63 52 67 VRB6 29.96S  

 
 
KEY  
WCI = WIND CHILL INDEX  
VSB = VISIBILITY  
HX = HEAT INDEX  

 
 
 
CLICK HERE TO GO TO PREVIOUS BULLETINS.

The Nexlab NY Page
The Nexlab VT Page
The Nexlab MA Page
The Nexlab CT Page Main Text Page